Wind_Speed
67 64 67 70 73 72 72 71 71 71 71 69 68 66 65 65 65 64 65 64 63 60 59 59 59 59 58 57 57 59 60 61 61 62 62 61 59 58
56 53 56 60 65 63 63 65 67 66 66 66 67 65 62 63 63 64 63 63 62 61 59 58 58 58 57 56 56 57 55 57 59 59 59 60 60 60
52 49 52 50 53 56 56 58 61 62 64 64 62 62 61 61 62 63 62 61 61 61 61 59 58 57 55 55 57 58 56 56 58 59 59 60 59 59
51 50 52 53 57 56 56 58 59 60 62 64 63 64 62 61 62 63 64 63 61 60 60 59 59 58 56 56 58 59 59 59 61 62 62 60 58 58
50 49 51 55 61 62 61 59 59 59 56 57 56 55 56 56 57 59 59 61 60 59 58 57 57 57 58 58 58 59 61 62 62 61 61 64 63 59
51 49 44 45 51 52 52 54 53 52 53 54 55 53 53 54 55 55 56 59 60 60 59 59 59 59 58 58 59 59 59 59 58 57 55 55 58 57
48 45 40 37 42 45 48 51 51 48 48 51 55 55 56 56 57 56 56 58 60 59 60 63 63 62 62 62 59 57 55 54 52 51 51 50 50 52
40 36 34 36 39 41 44 46 45 45 47 49 50 53 55 56 58 59 57 57 60 59 60 60 57 58 58 58 57 57 56 52 50 49 48 48 48 49
34 34 33 37 41 42 43 43 44 45 46 47 47 49 52 55 58 59 56 57 58 56 51 49 50 56 58 58 56 56 54 53 49 47 47 47 47 47
31 33 36 38 40 41 42 43 43 45 47 49 49 47 47 50 56 58 56 54 51 50 46 46 46 47 50 50 49 49 49 49 49 48 47 45 45 44
32 33 37 40 39 41 43 44 44 46 48 50 51 50 48 47 48 53 55 54 49 46 46 45 44 44 44 45 46 46 48 50 50 48 48 46 45 44
36 37 38 40 40 39 40 42 41 42 43 46 48 49 49 49 49 47 48 51 49 46 43 42 42 43 44 45 44 43 45 48 49 49 49 48 47 46
38 39 40 42 43 42 41 40 40 39 39 42 43 42 44 48 48 46 45 49 48 43 41 40 40 41 42 42 44 45 45 47 49 49 49 49 49 47
39 39 38 39 41 42 40 40 39 39 39 38 40 42 43 43 45 45 48 51 45 40 39 38 36 35 35 36 38 41 43 45 46 46 46 48 50 49
43 41 40 40 41 42 41 40 40 41 41 41 40 41 43 42 41 43 44 44 43 43 44 45 43 40 38 36 37 39 41 42 44 46 47 49 50 50
47 45 44 44 44 44 44 43 42 42 42 43 43 42 42 44 44 45 45 45 45 47 48 49 50 48 45 43 41 41 41 43 45 48 49 50 51 51
53 52 51 50 49 48 48 47 45 44 43 43 43 41 40 40 40 39 39 39 40 40 39 39 39 40 41 43 44 45 47 49 50 51 52 52 54 54
56 56 56 56 56 55 53 51 49 47 47 46 45 43 43 43 43 42 42 43 43 43 42 41 40 39 40 42 44 47 50 52 54 55 56 56 57 58
59 60 60 60 60 59 59 58 55 53 52 52 51 49 48 48 47 46 45 45 44 44 43 43 42 41 40 41 42 46 50 53 55 56 58 59 59 59
63 63 63 63 63 62 62 63 62 60 58 57 56 56 55 53 53 52 51 50 49 47 46 46 46 45 44 43 44 47 49 51 54 55 56 57 58 58
66 66 66 65 65 66 66 66 66 65 64 63 62 60 59 59 58 57 56 56 55 52 50 50 50 49 47 46 47 49 51 52 53 54 55 56 56 56
61 67 69 69 69 69 69 69 69 69 69 68 68 67 65 64 63 62 61 59 58 57 56 55 54 54 53 53 52 52 53 53 54 54 53 53 52 51
42 51 60 67 70 72 72 71 71 71 71 71 71 71 71 70 68 67 66 65 64 63 61 60 59 58 58 56 54 55 56 54 53 53 53 51 49 47
Wind_Direction
246 247 247 245 243 243 244 245 245 245 246 246 247 248 249 248 248 248 249 250 251 251 252 252 253 254 255 254 255 255 255 254 253 251 252 252 250 249
242 241 244 246 248 247 246 246 246 246 247 247 247 248 249 250 250 250 249 249 248 249 250 251 252 254 254 254 253 254 254 253 250 249 249 250 249 248
237 237 241 246 248 247 247 247 247 246 246 246 247 247 247 247 246 248 248 247 247 248 248 249 251 251 251 250 248 250 251 254 252 250 249 249 249 250
235 236 238 241 243 242 244 246 246 248 249 247 250 251 250 250 247 247 248 248 247 247 248 248 248 248 248 247 247 250 253 256 257 254 252 251 252 252
234 239 242 245 239 243 246 246 246 246 244 244 247 246 248 247 247 248 246 245 245 246 247 246 244 244 243 244 247 251 255 256 255 253 252 251 251 251
236 240 244 244 242 243 243 242 242 240 240 240 241 244 247 248 248 249 247 244 244 245 245 242 241 241 242 244 248 252 254 254 252 251 249 247 247 247
234 234 236 238 237 230 231 236 237 237 239 241 244 247 248 248 249 248 247 246 246 245 244 243 242 242 243 245 247 248 249 248 245 243 243 243 243 243
235 235 236 233 230 228 230 233 238 241 245 247 250 250 249 248 249 247 246 247 246 243 244 244 240 241 242 243 245 246 247 245 240 239 243 245 247 247
233 233 233 231 229 230 232 238 243 247 251 251 251 250 248 246 245 244 244 246 245 242 242 242 239 240 244 245 245 245 245 240 238 239 241 242 243 245
231 229 228 229 229 233 235 240 243 249 251 250 246 244 246 245 243 244 244 243 239 238 237 240 240 241 242 242 242 241 238 236 237 238 239 241 244 246
230 229 228 230 232 235 237 240 243 248 249 247 242 241 244 243 242 241 239 236 235 236 234 236 238 239 241 241 238 237 237 237 237 238 240 242 245 248
235 234 234 235 237 237 239 240 243 247 246 243 239 240 238 241 245 236 228 229 230 231 233 237 238 239 241 240 239 239 238 237 238 240 243 246 248 250
236 236 238 238 237 235 237 240 243 245 247 242 238 239 235 239 241 227 223 226 226 229 233 236 236 238 240 241 242 242 241 240 241 242 246 250 251 252
235 236 238 239 238 237 239 242 245 247 249 244 237 235 236 238 236 232 231 230 228 230 231 232 235 236 238 241 244 246 245 245 245 247 250 253 254 255
239 240 241 242 241 240 241 243 245 244 244 243 241 235 233 234 234 236 234 231 231 233 236 237 240 241 242 243 246 249 251 251 252 253 254 256 258 259
241 241 242 242 242 242 242 242 242 243 241 239 238 233 231 232 233 233 232 232 232 235 238 239 241 245 247 248 250 252 253 255 256 255 256 258 259 261
241 241 241 241 241 242 243 242 242 242 242 240 237 232 231 231 230 229 230 231 233 235 236 237 239 242 245 248 249 252 253 255 256 258 259 260 261 262
242 242 242 241 240 239 240 241 241 241 241 242 239 235 233 233 232 230 231 232 233 235 237 238 240 244 248 252 254 255 256 257 258 259 259 259 262 263
244 243 242 242 241 239 239 239 238 238 240 241 240 238 237 236 234 233 233 234 235 236 239 241 243 245 250 254 258 261 261 260 259 261 262 261 261 262
246 245 244 244 243 243 242 241 240 238 238 239 239 239 238 238 238 238 237 237 237 238 240 243 245 247 249 253 258 264 264 264 262 262 264 264 262 262
248 247 246 245 245 244 244 243 243 242 241 240 240 240 240 240 239 239 240 240 240 240 242 245 246 248 250 252 256 261 266 267 265 263 262 262 261 261
249 248 247 246 245 245 245 245 244 244 244 243 243 242 241 241 241 241 241 241 242 244 244 245 246 249 251 253 256 260 265 267 268 265 263 262 261 258
255 251 249 247 246 245 245 245 245 244 244 244 244 244 244 243 243 243 243 244 245 246 247 247 248 250 253 255 258 262 264 266 267 266 263 261 261 260
Height
5540 5546 5551 5555 5560 5568 5576 5582 5588 5594 5601 5607 5612 5616 5620 5624 5629 5634 5639 5642 5645 5650 5655 5659 5664 5669 5674 5678 5681 5685 5689 5693 5697 5701 5704 5708 5712 5717
5525 5531 5535 5538 5544 5553 5560 5565 5570 5576 5584 5589 5594 5600 5605 5609 5612 5616 5621 5625 5629 5634 5638 5643 5648 5653 5658 5663 5667 5671 5674 5678 5682 5686 5690 5695 5698 5703
5510 5516 5521 5527 5531 5538 5544 5549 5555 5560 5567 5571 5575 5582 5588 5593 5597 5601 5605 5610 5615 5619 5623 5628 5633 5638 5643 5648 5652 5657 5660 5664 5667 5672 5676 5680 5683 5688
5494 5499 5505 5511 5518 5523 5528 5533 5538 5544 5550 5555 5559 5564 5570 5575 5580 5585 5589 5593 5599 5603 5608 5612 5618 5623 5628 5633 5637 5641 5645 5648 5652 5657 5661 5666 5670 5673
5481 5486 5491 5494 5501 5506 5512 5517 5523 5528 5533 5539 5543 5546 5551 5558 5563 5567 5572 5578 5584 5588 5593 5597 5602 5607 5612 5618 5622 5626 5629 5633 5638 5642 5646 5650 5656 5660
5468 5474 5478 5482 5486 5491 5497 5502 5508 5513 5519 5524 5528 5532 5537 5543 5547 5551 5556 5561 5567 5571 5576 5582 5587 5592 5598 5603 5607 5611 5615 5619 5624 5627 5631 5636 5641 5646
5457 5462 5464 5469 5474 5478 5483 5490 5495 5500 5505 5510 5514 5518 5523 5528 5532 5536 5541 5545 5550 5556 5560 5565 5572 5578 5582 5586 5591 5597 5602 5606 5610 5614 5618 5622 5627 5631
5444 5447 5452 5457 5462 5465 5471 5478 5483 5488 5493 5496 5498 5502 5508 5512 5516 5520 5525 5530 5535 5541 5544 5549 5557 5561 5565 5571 5577 5583 5589 5594 5598 5602 5607 5611 5615 5619
5432 5436 5441 5446 5451 5455 5461 5466 5470 5475 5479 5481 5484 5487 5492 5496 5501 5505 5509 5514 5520 5525 5530 5535 5542 5547 5552 5558 5564 5569 5574 5580 5585 5590 5595 5599 5602 5607
5422 5426 5431 5435 5440 5445 5450 5454 5458 5462 5465 5467 5471 5475 5478 5481 5486 5491 5495 5500 5506 5512 5518 5524 5529 5534 5539 5546 5551 5555 5560 5566 5572 5577 5582 5586 5591 5595
5412 5416 5420 5424 5430 5434 5439 5443 5446 5449 5451 5453 5456 5460 5465 5468 5471 5476 5482 5487 5493 5499 5506 5512 5517 5522 5527 5533 5539 5543 5548 5554 5560 5564 5570 5575 5579 5582
5402 5405 5409 5414 5418 5421 5426 5430 5433 5436 5438 5440 5442 5446 5451 5455 5459 5463 5468 5474 5481 5488 5494 5500 5506 5511 5517 5522 5527 5532 5537 5542 5547 5553 5558 5562 5566 5570
5390 5394 5397 5402 5407 5410 5414 5418 5421 5423 5425 5427 5430 5434 5438 5444 5448 5452 5457 5463 5470 5477 5483 5489 5495 5501 5506 5511 5515 5520 5524 5530 5535 5541 5545 5549 5553 5555
5378 5382 5387 5391 5394 5398 5402 5405 5408 5411 5414 5416 5419 5423 5428 5433 5438 5443 5447 5453 5459 5466 5473 5478 5485 5490 5496 5500 5503 5507 5512 5518 5523 5528 5532 5536 5539 5541
5365 5369 5373 5376 5380 5384 5388 5392 5395 5399 5402 5406 5409 5412 5417 5422 5427 5433 5437 5442 5449 5455 5461 5468 5474 5480 5486 5490 5493 5496 5501 5505 5510 5515 5519 5522 5525 5527
5349 5354 5358 5362 5365 5369 5374 5379 5383 5386 5390 5394 5398 5401 5405 5410 5415 5421 5426 5432 5438 5445 5451 5456 5463 5468 5473 5478 5483 5487 5491 5494 5497 5502 5506 5509 5511 5513
5332 5337 5342 5346 5350 5355 5360 5364 5368 5372 5377 5382 5386 5390 5394 5399 5404 5409 5415 5421 5427 5433 5439 5445 5451 5456 5461 5466 5472 5476 5480 5483 5487 5490 5493 5495 5496 5498
5313 5318 5323 5327 5333 5338 5343 5348 5353 5358 5363 5368 5373 5378 5383 5388 5394 5399 5404 5411 5416 5422 5428 5433 5439 5444 5449 5454 5459 5463 5466 5470 5473 5476 5479 5483 5484 5484
5294 5297 5302 5307 5313 5319 5325 5331 5336 5342 5348 5354 5359 5365 5371 5376 5382 5387 5393 5399 5405 5410 5415 5421 5426 5432 5436 5441 5446 5448 5452 5455 5458 5461 5463 5467 5471 5471
5272 5277 5282 5287 5292 5298 5305 5311 5318 5324 5331 5337 5343 5350 5356 5362 5368 5373 5379 5385 5391 5397 5402 5408 5414 5420 5424 5429 5432 5433 5438 5440 5443 5446 5448 5451 5453 5456
5247 5254 5260 5266 5271 5277 5284 5290 5297 5304 5311 5319 5325 5332 5339 5345 5351 5358 5364 5370 5377 5382 5387 5393 5400 5406 5410 5415 5419 5419 5420 5425 5427 5430 5432 5434 5437 5439
5225 5230 5236 5243 5250 5256 5262 5269 5276 5283 5290 5298 5305 5312 5320 5326 5333 5340 5347 5354 5360 5367 5372 5377 5384 5390 5396 5401 5405 5407 5407 5408 5411 5414 5415 5418 5421 5424
5206 5209 5214 5220 5226 5233 5240 5247 5254 5261 5269 5276 5284 5291 5299 5306 5314 5322 5328 5335 5342 5349 5354 5360 5366 5373 5378 5384 5389 5392 5393 5393 5395 5398 5399 5401 5406 5409